Temp
78 77 77 76 76 77 76 76 76 76 75 76 76 76 76 77 77 77 78 78 78 78 77 77 78 77 78 78 78 78 78 77 78 78 77 77 76 76 75 74 74 73
77 78 78 77 76 76 76 77 76 76 75 75 76 76 76 77 77 78 77 77 78 78 78 78 78 78 78 77 77 77 77 77 77 78 77 76 76 76 76 76 75 74
78 78 78 77 77 77 78 77 76 76 76 76 76 76 76 77 77 77 78 78 78 78 78 78 78 78 78 77 77 77 77 77 77 78 77 76 77 76 76 77 76 75
77 78 78 79 78 77 78 76 76 76 77 76 76 77 77 78 77 77 77 78 77 77 78 78 78 78 78 78 77 77 77 77 78 78 77 77 77 77 76 76 76 75
78 78 78 79 79 78 77 77 77 77 77 77 77 76 76 76 76 77 77 77 77 78 77 77 78 78 78 78 77 77 77 77 77 77 76 76 77 76 77 76 75 75
78 78 78 78 78 77 77 77 77 77 77 78 77 77 77 77 77 77 77 77 78 78 78 78 78 78 78 78 77 77 77 77 77 76 76 76 77 77 77 76 75 75
78 78 78 79 79 78 77 77 77 78 78 78 77 77 77 77 77 77 77 77 78 77 78 77 77 77 78 78 77 77 77 77 77 76 76 76 76 76 77 76 75 75
78 79 79 78 78 78 78 78 78 78 78 77 77 77 77 78 77 78 77 77 78 77 77 78 77 77 78 78 77 77 77 77 77 76 76 76 76 76 76 76 76 75
79 78 78 78 78 78 79 79 78 78 78 77 78 79 78 78 78 78 77 77 77 77 77 77 77 77 78 77 77 77 77 77 78 77 76 76 76 76 77 76 76 75
78 78 79 79 78 79 79 79 80 79 79 78 79 79 78 78 78 78 78 77 77 77 77 77 77 77 77 78 77 77 77 77 77 77 77 77 77 77 77 76 76 75
79 79 78 78 79 80 79 80 80 80 79 79 79 79 79 78 78 78 77 77 77 77 77 77 77 77 77 78 78 78 78 78 78 77 77 77 77 77 77 77 76 76
79 79 79 79 79 80 80 80 81 80 80 80 80 79 79 79 78 78 78 77 77 78 78 78 77 77 77 78 78 78 78 78 78 78 78 78 78 78 78 78 77 77
79 78 79 79 79 79 80 80 80 81 81 80 80 80 80 80 80 78 78 78 78 78 78 78 78 78 77 77 78 78 78 78 78 78 78 78 78 78 79 78 78 78
79 79 79 78 79 78 79 80 80 80 80 80 80 79 80 80 80 79 79 79 79 79 79 79 78 78 78 78 78 78 78 78 78 78 78 78 78 79 79 79 79 79
78 79 79 78 79 78 78 79 79 79 79 79 79 80 80 81 81 81 80 79 79 79 79 79 79 79 79 79 78 78 78 78 78 78 78 78 78 79 79 79 79 79
78 78 78 78 78 77 77 78 79 79 80 79 79 79 79 79 79 79 80 80 79 79 79 79 79 79 75 68 71 78 78 79 79 78 78 78 77 77 78 79 79 80
78 78 78 77 77 77 77 77 78 78 78 78 78 78 78 78 79 79 80 80 80 80 79 79 79 79 69 65 65 67 77 79 78 78 78 78 78 77 77 78 79 79
78 78 77 77 77 77 77 77 78 77 77 77 77 78 77 79 78 78 78 80 80 80 80 80 80 71 67 65 65 64 68 78 80 79 79 78 78 78 78 79 79 79
78 78 77 77 77 77 77 77 77 77 77 77 77 78 79 77 77 78 78 79 79 79 80 81 81 70 66 64 64 64 64 70 80 80 79 79 79 79 79 78 78 78
78 78 77 77 78 78 77 77 77 77 78 79 79 78 77 78 78 78 78 78 78 78 78 80 80 71 65 63 63 62 63 66 77 79 80 80 79 79 79 79 79 78
78 78 78 78 78 78 77 77 77 77 77 79 79 79 78 77 78 78 78 78 79 80 79 80 82 70 64 62 61 60 61 63 75 78 79 79 79 80 79 80 79 79
79 78 78 78 78 78 77 77 77 77 77 78 78 79 79 80 79 80 79 79 79 80 79 79 82 68 64 62 60 59 60 68 74 76 77 78 79 79 80 80 80 80
80 80 79 78 78 78 77 77 77 77 78 79 78 79 79 79 79 80 79 80 79 79 79 79 81 72 62 60 59 58 60 71 73 75 76 77 78 79 79 80 80 80
80 80 79 79 78 78 78 79 79 79 79 79 79 79 79 80 80 80 80 80 80 80 80 79 80 74 62 59 58 57 63 73 74 74 75 76 77 78 79 79 80 76
81 81 80 80 78 79 79 79 79 79 80 80 80 80 80 80 80 80 80 80 82 82 75 78 81 76 62 59 58 56 63 74 75 75 75 75 76 77 78 79 79 77
82 80 80 80 79 79 80 80 80 81 81 80 80 81 80 81 81 80 80 81 82 82 82 80 80 81 74 58 57 55 58 73 75 75 74 75 76 77 77 77 78 79
MSLP
1014.75 1015.11 1015.51 1015.87 1016.11 1016.27 1016.59 1016.99 1017.15 1017.43 1017.59 1017.71 1017.99 1018.07 1018.11 1018.07 1018.23 1018.43 1018.55 1018.71 1018.87 1019.03 1019.11 1019.19 1019.31 1019.47 1019.59 1019.71 1019.83 1019.99 1020.19 1020.31 1020.35 1020.43 1020.59 1020.75 1020.95 1021.11 1021.27 1021.31 1021.43 1021.47
1014.47 1014.75 1015.03 1015.39 1015.79 1015.99 1016.23 1016.39 1016.75 1017.03 1017.27 1017.39 1017.43 1017.59 1017.75 1017.95 1018.03 1018.15 1018.39 1018.59 1018.71 1018.83 1018.87 1019.03 1019.15 1019.23 1019.43 1019.63 1019.75 1019.95 1020.11 1020.19 1020.35 1020.15 1020.51 1020.67 1020.71 1020.87 1020.99 1020.99 1021.03 1021.07
1014.15 1014.51 1014.83 1015.23 1015.47 1015.67 1015.79 1016.03 1016.35 1016.63 1016.91 1016.99 1017.15 1017.35 1017.55 1017.63 1017.91 1017.95 1018.11 1018.27 1018.51 1018.59 1018.75 1018.83 1018.99 1019.03 1019.15 1019.35 1019.55 1019.75 1019.91 1020.07 1020.23 1020.07 1020.27 1020.43 1020.47 1020.67 1020.67 1020.71 1020.87 1020.95
1013.83 1014.07 1014.35 1014.63 1014.87 1015.27 1015.51 1015.91 1016.19 1016.39 1016.59 1016.95 1017.07 1017.03 1017.19 1017.35 1017.55 1017.83 1017.95 1018.07 1018.27 1018.39 1018.47 1018.63 1018.71 1018.79 1018.91 1019.07 1019.31 1019.55 1019.59 1019.71 1019.71 1019.87 1020.15 1020.15 1020.23 1020.31 1020.43 1020.51 1020.67 1020.79
1013.51 1013.83 1014.03 1014.27 1014.51 1014.83 1015.23 1015.63 1015.91 1016.07 1016.31 1016.39 1016.67 1016.87 1017.07 1017.27 1017.47 1017.63 1017.75 1017.87 1017.95 1018.15 1018.27 1018.39 1018.47 1018.59 1018.63 1018.83 1018.99 1019.35 1019.43 1019.59 1019.59 1019.75 1020.03 1020.15 1020.03 1020.15 1020.15 1020.35 1020.55 1020.71
1013.15 1013.35 1013.63 1013.95 1014.23 1014.63 1015.07 1015.27 1015.39 1015.63 1015.91 1016.23 1016.39 1016.55 1016.75 1016.91 1017.15 1017.31 1017.43 1017.63 1017.71 1017.83 1018.03 1018.11 1018.31 1018.35 1018.43 1018.59 1018.83 1018.99 1019.15 1019.39 1019.43 1019.63 1019.91 1019.99 1019.95 1019.91 1019.99 1020.11 1020.31 1020.51
1012.91 1013.19 1013.47 1013.67 1014.03 1014.31 1014.63 1014.79 1015.03 1015.27 1015.51 1015.67 1015.99 1016.35 1016.43 1016.75 1016.91 1016.99 1017.11 1017.23 1017.43 1017.59 1017.75 1017.87 1018.03 1018.19 1018.23 1018.43 1018.67 1018.83 1018.87 1018.99 1019.19 1019.43 1019.67 1019.71 1019.79 1019.87 1019.83 1019.91 1020.07 1020.19
1012.51 1012.75 1013.07 1013.43 1013.83 1014.03 1014.31 1014.51 1014.75 1014.99 1015.15 1015.51 1015.83 1015.87 1016.07 1016.35 1016.55 1016.63 1016.79 1016.95 1017.19 1017.35 1017.43 1017.55 1017.71 1017.87 1017.99 1018.23 1018.47 1018.63 1018.71 1018.75 1018.99 1019.23 1019.43 1019.55 1019.63 1019.79 1019.67 1019.67 1019.75 1019.99
1012.11 1012.51 1012.79 1013.15 1013.51 1013.71 1013.99 1014.15 1014.39 1014.67 1014.87 1015.27 1015.43 1015.59 1015.71 1015.91 1016.15 1016.31 1016.51 1016.67 1016.87 1017.03 1017.19 1017.35 1017.43 1017.59 1017.71 1017.95 1018.15 1018.31 1018.51 1018.59 1018.63 1018.87 1019.15 1019.39 1019.51 1019.47 1019.43 1019.43 1019.71 1019.75
1011.83 1012.11 1012.51 1012.79 1013.15 1013.27 1013.55 1013.71 1013.95 1014.31 1014.51 1014.79 1014.99 1015.15 1015.47 1015.55 1015.71 1015.95 1016.19 1016.43 1016.63 1016.79 1016.91 1017.03 1017.15 1017.27 1017.43 1017.55 1017.75 1017.95 1018.15 1018.27 1018.39 1018.55 1018.67 1018.83 1018.99 1019.07 1019.15 1019.31 1019.39 1019.59
1011.51 1011.79 1012.15 1012.43 1012.67 1012.87 1013.15 1013.31 1013.59 1013.87 1014.11 1014.39 1014.63 1014.91 1014.99 1015.27 1015.51 1015.59 1015.87 1016.11 1016.31 1016.43 1016.55 1016.71 1016.75 1016.87 1017.15 1017.27 1017.35 1017.47 1017.67 1017.83 1018.03 1018.19 1018.31 1018.39 1018.47 1018.59 1018.71 1018.87 1019.03 1019.15
1011.11 1011.43 1011.75 1011.99 1012.27 1012.47 1012.71 1012.95 1013.19 1013.47 1013.71 1013.95 1014.15 1014.51 1014.67 1014.83 1015.11 1015.31 1015.47 1015.71 1015.75 1015.87 1016.03 1016.19 1016.31 1016.51 1016.71 1016.87 1017.03 1017.15 1017.31 1017.43 1017.55 1017.75 1017.87 1018.03 1018.11 1018.19 1018.31 1018.43 1018.59 1018.63
1010.63 1010.91 1011.15 1011.51 1011.79 1012.03 1012.23 1012.55 1012.79 1012.99 1013.27 1013.55 1013.67 1013.95 1014.27 1014.51 1014.63 1014.91 1014.99 1015.15 1015.27 1015.43 1015.63 1015.79 1015.99 1016.15 1016.35 1016.55 1016.67 1016.79 1016.91 1017.11 1017.27 1017.39 1017.55 1017.67 1017.75 1017.83 1017.91 1018.03 1018.11 1018.15
1009.99 1010.23 1010.59 1010.91 1011.15 1011.47 1011.79 1011.99 1012.27 1012.55 1012.79 1012.95 1013.23 1013.63 1013.79 1013.99 1014.23 1014.43 1014.55 1014.71 1014.83 1015.03 1015.15 1015.39 1015.63 1015.83 1015.95 1016.07 1016.23 1016.35 1016.51 1016.67 1016.83 1017.07 1017.27 1017.39 1017.47 1017.55 1017.59 1017.67 1017.67 1017.67
1009.47 1009.83 1010.15 1010.55 1010.87 1011.19 1011.47 1011.71 1011.91 1012.11 1012.35 1012.59 1012.87 1013.11 1013.27 1013.43 1013.63 1013.91 1014.27 1014.47 1014.55 1014.71 1014.87 1015.03 1015.27 1015.35 1015.39 1015.55 1015.79 1015.95 1016.03 1016.31 1016.47 1016.67 1016.87 1017.11 1017.27 1017.31 1017.31 1017.31 1017.27 1017.23
1009.11 1009.51 1009.87 1010.23 1010.67 1010.95 1011.15 1011.31 1011.51 1011.75 1011.99 1012.31 1012.51 1012.67 1012.87 1013.11 1013.39 1013.55 1013.79 1014.07 1014.31 1014.43 1014.55 1014.71 1014.83 1014.71 1014.71 1014.87 1015.03 1015.31 1015.67 1015.87 1016.07 1016.23 1016.43 1016.67 1016.95 1017.11 1017.07 1016.95 1016.87 1016.91
1008.87 1009.23 1009.55 1010.03 1010.19 1010.47 1010.75 1010.99 1011.19 1011.39 1011.71 1011.95 1012.11 1012.31 1012.59 1012.79 1013.03 1013.31 1013.47 1013.51 1013.75 1013.99 1014.23 1014.31 1014.31 1014.15 1014.23 1014.51 1014.75 1014.95 1015.19 1015.51 1015.75 1015.91 1016.03 1016.27 1016.47 1016.67 1016.75 1016.67 1016.59 1016.55
1008.47 1008.87 1009.31 1009.59 1009.87 1010.15 1010.31 1010.59 1010.87 1011.19 1011.43 1011.59 1011.83 1012.07 1012.19 1012.35 1012.67 1012.79 1012.91 1013.07 1013.23 1013.43 1013.63 1013.71 1013.71 1013.59 1013.87 1014.11 1014.35 1014.63 1014.87 1014.99 1015.19 1015.51 1015.67 1015.83 1015.95 1016.11 1016.11 1016.19 1016.23 1016.23
1008.07 1008.55 1008.91 1009.23 1009.43 1009.63 1009.91 1010.23 1010.55 1010.87 1011.11 1011.35 1011.55 1011.47 1011.71 1012.03 1012.11 1012.31 1012.51 1012.59 1012.79 1013.03 1013.11 1013.07 1013.11 1013.03 1013.39 1013.63 1013.87 1014.19 1014.47 1014.75 1014.79 1014.91 1015.19 1015.35 1015.43 1015.55 1015.63 1015.67 1015.75 1015.87
1007.67 1008.11 1008.47 1008.67 1008.91 1009.19 1009.51 1009.83 1010.19 1010.43 1010.47 1010.59 1010.87 1011.11 1011.43 1011.59 1011.67 1011.87 1011.99 1012.19 1012.31 1012.47 1012.55 1012.51 1012.55 1012.47 1012.83 1013.11 1013.39 1013.71 1014.07 1014.43 1014.43 1014.51 1014.59 1014.71 1014.83 1014.91 1014.99 1015.11 1015.19 1015.43
1007.27 1007.63 1007.99 1008.23 1008.47 1008.79 1009.11 1009.43 1009.67 1009.87 1010.11 1010.19 1010.43 1010.67 1010.95 1011.11 1011.23 1011.47 1011.51 1011.63 1011.75 1011.83 1012.07 1012.11 1011.83 1011.91 1012.31 1012.55 1012.91 1013.27 1013.67 1014.03 1014.07 1014.15 1014.19 1014.23 1014.19 1014.19 1014.31 1014.43 1014.55 1014.71
1006.75 1007.19 1007.51 1007.79 1008.07 1008.43 1008.79 1009.07 1009.23 1009.39 1009.63 1009.71 1009.99 1010.11 1010.19 1010.39 1010.63 1010.75 1010.99 1011.11 1011.19 1011.43 1011.67 1011.67 1011.23 1011.43 1011.79 1012.07 1012.43 1012.91 1013.39 1013.75 1013.79 1013.87 1013.91 1013.87 1013.79 1013.67 1013.71 1013.79 1013.91 1014.11
1006.15 1006.59 1006.95 1007.27 1007.59 1008.03 1008.39 1008.59 1008.79 1008.95 1009.07 1009.15 1009.63 1009.71 1009.91 1010.03 1010.15 1010.23 1010.31 1010.59 1010.83 1010.99 1011.15 1010.99 1010.91 1010.95 1011.27 1011.59 1012.03 1012.51 1013.15 1013.27 1013.39 1013.47 1013.51 1013.51 1013.35 1013.19 1013.23 1013.27 1013.31 1013.43
1005.51 1005.87 1006.35 1006.75 1007.15 1007.59 1007.75 1007.83 1007.83 1007.99 1008.31 1008.47 1008.99 1009.27 1009.47 1009.39 1009.55 1009.79 1009.83 1009.95 1010.23 1010.35 1010.31 1010.63 1010.51 1010.47 1010.83 1011.15 1011.59 1012.07 1012.35 1012.67 1012.87 1013.11 1013.11 1013.11 1012.91 1012.79 1012.79 1012.83 1012.75 1012.95
1004.83 1005.27 1005.71 1006.15 1006.63 1006.79 1006.87 1007.19 1007.39 1007.51 1007.51 1007.83 1008.23 1008.51 1008.71 1008.79 1009.07 1009.35 1009.47 1009.55 1009.51 1009.67 1009.83 1010.11 1010.03 1010.07 1010.35 1010.71 1011.11 1011.55 1011.95 1012.03 1012.27 1012.59 1012.79 1012.71 1012.67 1012.55 1012.39 1012.47 1012.47 1012.55
1004.35 1004.83 1005.15 1005.59 1005.95 1006.07 1006.27 1006.47 1006.55 1006.95 1007.35 1007.71 1007.87 1007.99 1008.27 1008.43 1008.63 1008.87 1009.15 1009.11 1009.03 1009.27 1009.35 1009.43 1009.63 1009.63 1009.83 1010.23 1010.59 1011.03 1011.31 1011.43 1011.67 1012.15 1012.35 1012.27 1012.23 1012.23 1012.31 1012.23 1012.27 1012.31
Wind_Speed
12 11 11 10 10 10 9 9 8 9 8 8 8 8 9 8 7 9 8 7 8 7 7 7 6 6 5 6 6 5 5 5 5 4 5 5 5 5 6 7 6 6
13 13 11 10 8 8 8 9 9 9 9 9 8 7 7 6 8 8 9 9 7 8 7 6 6 7 6 6 6 6 5 5 6 3 5 6 5 5 6 7 7 5
13 12 12 12 12 12 11 9 8 8 8 8 7 6 7 6 7 8 8 8 8 7 7 7 7 7 6 6 6 6 5 6 6 5 5 6 5 6 6 5 5 6
14 13 13 13 12 12 10 8 8 8 7 6 9 8 7 6 8 8 8 9 9 8 7 7 8 7 7 6 6 6 6 6 6 5 6 5 5 5 6 5 5 5
14 13 12 12 11 10 9 10 10 10 10 9 7 7 7 8 8 8 8 9 9 8 7 8 7 7 7 6 6 6 6 6 5 6 5 6 5 5 5 5 6 7
12 13 13 12 11 11 10 12 12 11 10 9 9 7 8 9 9 9 9 9 7 7 8 7 7 7 7 7 6 6 5 6 6 6 6 6 5 5 4 5 6 7
14 13 13 12 11 12 12 12 10 10 10 9 7 8 8 9 9 10 10 10 10 9 9 9 9 8 7 6 6 7 6 6 6 7 7 6 5 6 5 6 7 7
14 13 12 11 12 12 12 11 10 10 9 8 10 9 9 9 10 9 9 10 9 10 10 10 9 9 7 6 7 7 7 5 6 6 7 7 5 7 7 5 6 8
13 13 12 14 14 12 11 11 9 10 8 10 10 9 9 9 10 10 10 10 10 9 10 9 10 9 8 8 8 9 8 7 6 7 7 7 7 8 7 5 6 7
13 13 13 13 12 12 12 12 10 9 9 10 10 7 9 8 9 10 9 10 10 10 10 10 10 9 8 8 9 9 8 9 7 8 7 8 8 8 7 7 8 7
14 14 14 15 14 11 12 11 10 9 9 11 10 9 10 9 9 9 10 10 10 11 11 11 11 10 10 8 8 8 9 8 8 8 8 8 8 8 7 8 8 9
15 14 15 15 14 12 13 12 11 11 11 9 10 11 11 9 11 9 10 11 11 11 11 11 10 10 10 10 8 8 8 8 8 8 8 8 8 8 8 7 8 9
15 15 14 14 14 14 12 12 12 11 11 11 11 11 10 10 10 11 10 11 12 11 11 11 10 10 10 10 10 10 10 10 9 9 8 7 8 8 8 8 8 8
15 15 14 14 13 13 13 13 13 13 12 12 11 11 10 11 10 11 10 10 11 11 11 9 10 9 10 10 10 11 10 10 9 9 8 8 8 8 8 8 9 9
14 13 12 12 13 12 13 13 13 12 12 11 11 11 10 10 11 11 11 11 11 10 10 10 10 11 10 10 11 12 10 10 9 9 9 8 8 8 8 9 9 9
13 12 12 12 12 13 13 13 13 12 12 12 12 12 11 10 10 11 11 12 12 11 11 9 10 9 12 17 15 11 10 9 9 10 10 9 8 7 9 9 10 9
12 13 12 13 13 13 12 13 13 11 11 12 12 12 12 11 11 12 12 12 12 11 10 10 10 10 16 16 17 17 12 10 10 10 8 8 8 9 9 9 8 9
13 13 13 13 13 14 13 12 12 12 12 12 12 12 12 11 12 13 13 12 11 11 11 10 11 14 16 16 17 18 15 12 9 8 8 8 8 9 9 8 9 8
13 13 14 13 14 14 13 12 13 12 13 12 13 13 12 13 13 13 13 13 13 13 13 13 11 14 17 18 17 18 18 14 10 10 9 8 9 10 10 11 10 9
13 14 14 14 14 13 13 13 13 14 14 13 12 12 12 13 14 14 13 13 13 13 13 12 13 15 17 18 18 18 18 15 10 11 10 11 12 11 10 10 12 11
14 14 15 14 14 14 13 14 14 13 14 13 12 12 13 14 14 13 13 13 14 13 12 12 11 17 16 18 18 18 18 15 9 9 10 11 12 12 13 13 12 11
14 14 14 14 14 14 14 14 14 14 14 13 12 12 12 11 11 12 13 14 14 13 12 14 13 17 17 17 18 17 17 10 9 11 10 11 12 13 12 11 11 12
15 15 15 15 14 14 14 15 14 14 13 11 12 12 11 11 13 11 11 12 13 13 15 15 14 15 17 18 17 18 13 9 9 8 10 11 13 12 12 12 12 12
15 16 15 15 14 15 15 15 15 13 13 12 13 12 12 12 11 11 12 12 14 14 14 12 12 14 17 17 18 18 16 11 9 8 11 12 12 12 11 11 12 16
15 15 15 15 14 15 15 15 15 14 14 12 11 11 12 10 11 10 10 11 12 12 15 16 13 13 16 17 18 19 17 11 10 10 10 11 9 11 11 10 11 11
13 14 14 14 15 15 14 14 13 10 9 10 11 10 11 10 11 10 11 10 10 12 11 12 13 13 12 18 18 19 21 13 10 10 10 12 11 11 9 9 9 9
Wind_Direction
192 190 193 193 196 197 193 193 194 195 197 193 195 199 198 200 186 195 202 201 204 208 208 208 206 204 198 195 200 200 203 214 219 203 204 198 205 196 204 207 203 206
194 192 194 193 194 193 196 193 193 196 197 197 202 195 196 183 192 192 196 202 202 208 205 206 209 209 199 192 195 201 207 210 222 195 206 205 212 197 215 211 215 208
194 193 193 194 195 196 195 191 190 196 198 202 196 188 188 185 185 195 198 199 203 205 202 204 208 212 206 198 189 200 206 205 218 206 207 214 208 204 214 209 211 207
195 195 195 198 198 198 193 185 190 194 195 192 198 196 187 185 185 189 197 200 205 209 204 200 207 208 208 203 190 200 206 211 212 198 211 218 212 211 215 197 210 211
193 195 198 199 199 195 188 194 196 195 198 204 194 188 188 184 185 190 194 201 205 208 205 207 206 209 208 207 199 203 199 211 202 201 210 220 217 207 216 193 204 213
195 196 197 197 195 190 192 200 202 197 199 195 197 187 194 190 190 193 195 198 201 204 206 207 205 211 206 210 203 213 204 205 199 194 213 221 220 208 215 207 211 217
193 194 197 196 194 193 198 203 202 199 199 200 181 194 188 193 197 197 198 202 202 205 208 210 212 211 206 205 209 218 217 212 195 196 211 222 215 218 214 215 218 227
193 193 193 192 195 196 201 201 201 199 196 183 193 198 189 196 200 199 200 201 202 207 209 212 213 213 203 199 208 216 221 208 208 200 213 223 209 227 216 214 219 227
191 191 190 193 196 198 200 199 197 197 187 192 199 197 196 199 201 202 201 202 205 207 208 212 213 213 208 205 212 215 217 214 210 207 210 214 215 224 221 210 223 228
191 191 191 194 196 199 200 199 194 193 189 197 199 194 196 202 202 203 203 203 207 208 208 212 212 213 211 208 213 213 216 218 213 214 215 216 218 221 217 210 220 228
193 192 195 196 199 198 200 196 195 191 192 198 196 200 202 198 203 201 204 205 209 211 210 211 213 211 212 212 214 214 217 218 217 216 218 220 221 223 218 215 218 223
194 194 197 198 198 199 199 198 197 198 197 198 197 202 203 201 202 200 205 209 213 214 212 214 212 211 213 214 210 211 216 219 220 219 221 221 222 223 220 219 221 227
194 196 196 197 198 200 199 198 199 198 196 199 198 203 202 204 204 205 209 211 216 214 215 214 213 213 214 214 215 215 218 219 220 220 222 222 224 223 223 222 227 230
196 195 196 196 197 197 198 199 200 201 202 203 199 203 205 208 206 209 211 213 218 216 217 212 212 213 214 214 215 216 217 220 220 220 219 222 225 224 222 226 227 229
194 195 196 196 197 197 199 200 201 201 201 202 202 206 209 210 211 212 215 218 221 219 218 212 213 216 215 212 215 217 217 221 220 221 220 220 222 222 223 227 230 230
191 192 193 194 195 197 200 201 201 201 201 202 204 207 209 209 211 214 217 219 221 220 218 215 217 220 218 212 210 214 214 220 222 225 224 225 224 224 226 225 229 230
188 192 190 194 196 198 200 202 203 200 201 203 206 206 207 207 209 214 217 219 220 220 217 217 220 223 219 211 213 213 213 216 220 224 222 223 223 227 232 228 228 228
190 189 192 196 195 200 200 201 201 201 204 206 206 206 208 207 211 214 216 219 221 221 221 219 223 223 215 212 211 211 211 218 218 221 220 221 223 226 233 233 233 232
187 189 194 196 198 199 199 198 200 203 206 207 209 209 208 208 213 213 216 218 221 223 224 223 226 220 213 212 210 207 208 211 225 223 219 222 223 226 230 235 236 237
188 191 195 198 198 198 199 199 200 204 206 207 209 209 211 214 215 216 217 217 220 223 226 228 227 224 211 211 209 206 204 202 221 222 225 227 227 227 228 231 233 234
190 193 197 198 199 199 199 202 202 206 207 207 207 207 209 214 215 215 218 218 220 221 224 229 229 223 213 210 208 203 201 198 213 221 227 230 231 231 232 233 233 232
189 194 198 198 199 199 200 203 205 206 207 206 208 212 215 215 217 218 219 220 220 221 224 231 232 220 214 212 206 203 195 197 207 219 223 229 234 234 234 233 233 232
191 195 198 199 198 198 201 204 206 208 210 205 209 211 211 211 217 213 217 219 219 219 224 230 235 221 211 210 205 196 187 202 206 214 223 229 235 234 235 235 233 231
194 195 198 198 196 199 202 206 208 208 208 203 205 208 211 212 210 217 217 217 219 221 220 226 232 223 208 208 202 192 191 196 207 210 223 228 237 237 235 237 236 230
195 196 199 197 197 203 204 206 206 207 207 200 205 210 216 214 215 217 218 218 218 221 222 223 232 226 206 205 201 194 196 209 205 213 222 227 231 239 234 236 238 233
195 197 199 197 201 205 205 208 208 206 201 197 206 207 213 213 213 214 217 218 215 218 219 220 226 229 208 201 198 197 196 202 207 210 220 226 230 234 239 233 233 238